TimeEDT,TemperatureF,Dew PointF,Humidity,Sea Level PressureIn,VisibilityMPH,Wind Direction,Wind SpeedMPH,Gust SpeedMPH,PrecipitationIn,Events,Conditions,WindDirDegrees,DateUTC
12:51 AM,57.0,55.9,96,30.03,5.0,Calm,Calm,-,N/A,,Mostly Cloudy,0,2013-06-04 04:51:00
12:58 AM,57.2,55.4,94,30.08,5.0,Calm,Calm,-,N/A,,Overcast,0,2013-06-04 04:58:00
1:51 AM,59.0,57.0,93,30.02,7.0,NNW,5.8,-,N/A,,Overcast,340,2013-06-04 05:51:00
2:03 AM,59.0,57.2,94,30.08,8.0,NNE,4.6,-,N/A,,Overcast,30,2013-06-04 06:03:00
2:11 AM,59.0,55.4,88,30.08,9.0,NNE,3.5,-,N/A,,Mostly Cloudy,30,2013-06-04 06:11:00
2:22 AM,57.2,55.4,94,30.08,9.0,NNE,3.5,-,N/A,,Partly Cloudy,30,2013-06-04 06:22:00
2:34 AM,57.2,55.4,94,30.08,7.0,Calm,Calm,-,N/A,,Mostly Cloudy,0,2013-06-04 06:34:00
2:51 AM,57.9,55.9,93,30.02,8.0,Calm,Calm,-,N/A,,Overcast,0,2013-06-04 06:51:00
3:51 AM,57.9,55.9,93,30.02,8.0,NE,4.6,-,N/A,,Overcast,50,2013-06-04 07:51:00
4:51 AM,57.9,55.0,90,30.03,8.0,NNE,4.6,-,N/A,,Overcast,20,2013-06-04 08:51:00
5:51 AM,57.0,54.0,89,30.04,8.0,North,3.5,-,N/A,,Mostly Cloudy,10,2013-06-04 09:51:00
6:04 AM,55.4,53.6,94,30.11,6.0,Calm,Calm,-,N/A,,Scattered Clouds,0,2013-06-04 10:04:00
6:32 AM,55.4,53.6,94,30.11,5.0,Calm,Calm,-,N/A,,Mostly Cloudy,0,2013-06-04 10:32:00
6:51 AM,55.9,55.0,97,30.05,3.0,Calm,Calm,-,N/A,,Overcast,0,2013-06-04 10:51:00
7:01 AM,55.4,55.4,100,30.11,2.0,Calm,Calm,-,N/A,,Overcast,0,2013-06-04 11:01:00
7:13 AM,55.4,55.4,100,30.11,4.0,Calm,Calm,-,N/A,,Overcast,0,2013-06-04 11:13:00
7:51 AM,57.9,55.0,90,30.07,7.0,Calm,Calm,-,N/A,,Scattered Clouds,0,2013-06-04 11:51:00
8:14 AM,60.8,55.4,82,30.13,8.0,Calm,Calm,-,N/A,,Mostly Cloudy,0,2013-06-04 12:14:00
8:51 AM,60.1,54.0,80,30.09,10.0,North,6.9,-,N/A,,Scattered Clouds,10,2013-06-04 12:51:00
9:51 AM,63.0,53.1,70,30.09,10.0,NNE,5.8,-,N/A,,Clear,20,2013-06-04 13:51:00
10:51 AM,64.9,53.1,65,30.09,10.0,North,5.8,-,N/A,,Scattered Clouds,10,2013-06-04 14:51:00
11:51 AM,66.9,51.1,57,30.10,10.0,Calm,Calm,-,N/A,,Partly Cloudy,0,2013-06-04 15:51:00
12:51 PM,70.0,54.0,57,30.09,10.0,North,8.1,-,N/A,,Scattered Clouds,10,2013-06-04 16:51:00
1:51 PM,71.1,52.0,51,30.07,10.0,Calm,Calm,-,N/A,,Clear,0,2013-06-04 17:51:00
2:51 PM,73.0,52.0,48,30.06,10.0,Variable,3.5,-,N/A,,Partly Cloudy,0,2013-06-04 18:51:00
3:51 PM,75.0,53.1,46,30.05,10.0,Calm,Calm,-,N/A,,Clear,0,2013-06-04 19:51:00
4:51 PM,75.0,52.0,44,30.03,10.0,NNW,6.9,-,N/A,,Clear,330,2013-06-04 20:51:00
5:51 PM,73.9,53.1,48,30.03,10.0,NNW,6.9,-,N/A,,Scattered Clouds,340,2013-06-04 21:51:00
6:51 PM,73.9,53.1,48,30.04,10.0,NNE,5.8,-,N/A,,Partly Cloudy,30,2013-06-04 22:51:00
7:51 PM,70.0,55.0,59,30.06,10.0,North,8.1,-,N/A,,Clear,10,2013-06-04 23:51:00
8:51 PM,66.0,53.1,63,30.07,10.0,NNE,6.9,-,N/A,,Clear,20,2013-06-05 00:51:00
9:51 PM,63.0,54.0,72,30.09,10.0,Calm,Calm,-,N/A,,Clear,0,2013-06-05 01:51:00
10:51 PM,61.0,53.1,75,30.09,10.0,East,3.5,-,N/A,,Clear,100,2013-06-05 02:51:00
11:51 PM,57.9,53.1,84,30.09,10.0,Calm,Calm,-,N/A,,Clear,0,2013-06-05 03:51:00